Location: Balsareny
(41.8670°N, 1.8830°E)
Time: 05:24:07
(UTC+01:00)

N. Korean satellite - Pass Details

Date: 07 December 2021
Orbit: 447 x 491 km, 97.3° (Epoch: 23 January)

Event Time Altitude Azimuth Distance (km) Brightness Sun altitude
Rises 18:06:03 0° 199° (SSW) 2,519 10.9 -8.3°
Reaches altitude 10° 18:08:31 10° 217° (SW) 1,637 10.3 -8.7°
Maximum altitude 18:11:09 20° 265° (W) 1,153 9.6 -9.1°
Drops below altitude 10° 18:13:46 10° 314° (NW) 1,627 9.6 -9.6°
Sets 18:16:13 0° 332° (NNW) 2,498 10.3 -10.0°
